Regional Weather Roundup
Issued by NWS Columbia, SC

Home | Current Version | Previous Version | Text Only | Print | Product List | Glossary On
Versions: 1 2 3 4 5 6 7 8 9 10 11 12 13 14 15 16 17 18 19 20 21 22 23 24 25 26 27 28 29 30 31 32 33 34 35 36 37 38 39 40 41 42 43 44 45 46 47 48 49 50
000
ASUS42 KCAE 250210
RWRCAE
REGIONAL WEATHER ROUNDUP
NATIONAL WEATHER SERVICE COLUMBIA SC
900 PM EST TUE JAN 24 2017

NOTE: "FAIR" INDICATES FEW OR NO CLOUDS BELOW 12,000 FEET WITH NO
SIGNIFICANT WEATHER AND/OR OBSTRUCTIONS TO VISIBILITY.

NOT ALL STATIONS ARE QUALITY CONTROLLED BY THE NATIONAL
WEATHER SERVICE. USE DATA WITH CAUTION...ESPECIALLY
DEWPOINT OBSERVATIONS.

SCZ001>056-GAZ040-063>065-077-250300-
...UPSTATE SOUTH CAROLINA...

CITY           SKY/WX    TMP DP  RH WIND       PRES   REMARKS
ANDERSON       CLEAR     54  38  54 W8        29.83R
LIBERTY        CLEAR     50  36  59 NW5       29.82R
SPARTANBURG    CLEAR     46  37  71 CALM      29.82R
CLEMSON        CLEAR     56  34  43 W9        29.83R
GREENVILLE     CLEAR     53  39  59 N5        29.83R
GREENWOOD      CLEAR     51  37  58 SW7       29.85R
GREER          CLEAR     51  38  60 NE3       29.81R
ROCK HILL      CLEAR     44  37  76 W3        29.82R
CHESTER        CLEAR     46  34  61 SW3       29.84R
LAURENS        CLEAR     52  39  62 SW6       29.82S


...CENTRAL SOUTH CAROLINA...

CITY           SKY/WX    TMP DP  RH WIND       PRES   REMARKS
COLUMBIA APT   CLEAR     51  43  74 W5        29.83R
COLUMBIA OWENS CLEAR     51  44  77 CALM      29.84R
MCENTIRE ANGB  CLEAR     48  42  81 CALM      29.83R
ORANGEBURG     CLEAR     52  45  77 SW6       29.84R
SUMTER SHAW    CLEAR     53  41  64 W3        29.80S
NEWBERRY       CLEAR     52  43  71 SW6       29.86R
AIKEN          FAIR      50  41  71 SW10      29.87S
BARNWELL       FAIR      50  46  87 CALM      29.86R
MANNING        FAIR      48  43  81 CALM      29.84R
CAMDEN         FAIR      54  43  66 CALM      29.83R
LANCASTER      CLEAR     46  41  81 CALM      29.83R
WINNSBORO      CLEAR     54  43  66 SW5       29.83R


...EASTERN AND COASTAL SOUTH CAROLINA...

CITY           SKY/WX    TMP DP  RH WIND       PRES   REMARKS
MYRTLE BEACH   CLEAR     55  41  58 W7        29.83
N MYRTLE BCH   CLEAR     49  46  90 W5        29.81R
CONWAY         FAIR      50  45  81 CALM      29.82R
MARION         FAIR      52  43  71 W6        29.81R
HARTSVILLE     FAIR      48  41  76 CALM      29.81S
FLORENCE       CLEAR     55  43  63 W7        29.82R
DARLINGTON     CLEAR     53  43  68 W7        29.82R
CHARLESTON APT CLEAR     55  44  66 W5        29.85R
MOUNT PLEASANT FAIR      55  46  71 CALM      29.86R
WALTERBORO     CLEAR     52  45  76 CALM      29.87R
BEAUFORT       CLEAR     51  45  79 SW6       29.87R


...EASTERN GEORGIA...

CITY           SKY/WX    TMP DP  RH WIND       PRES   REMARKS
AUGUSTA BUSH F CLEAR     47  41  80 CALM      29.86R
AUGUSTA DANIEL CLEAR     57  36  45 VRB3      29.86R
THOMSON        CLEAR     50  44  79 CALM      29.91R
WASHINGTON     FAIR      55  37  50 W8        29.86R
CLAXTON        FAIR     N/A N/A N/A SW3       29.90R
SYLVANIA       CLEAR    N/A N/A N/A CALM      29.88R
STATESBORO     CLEAR     49  46  90 CALM      29.88R
SAVANNAH       CLEAR     54  43  66 W3        29.89R


...SOUTHERN NORTH CAROLINA...

CITY           SKY/WX    TMP DP  RH WIND       PRES   REMARKS
CHARLOTTE      CLEAR     51  36  56 NW6       29.82R
MONROE         CLEAR     51  38  60 W5        29.80R
WADESBORO      CLEAR     45  40  84 CALM      29.81R
ROCKINGHAM     CLEAR     51  41  70 CALM      29.81R
ASHEVILLE      CLEAR     42  35  76 N13       29.87S

$$



USA.gov is the U.S. government's official web portal to all federal, state and local government web resources and services.